User: anonymous   Login
Location: Mt. Chestnut Observatory
(40.9038°N, 79.9956°W)
Time: 08:04:45
(UTC-04:00)
Language:

Cosmos 2034 Rocket - Orbit

View from above orbital plane
View from above orbital plane
View from above satellite
View from above satellite

Ground track
Ground track

The orbit data is extracted from the following two-line orbital elements,

1 20150U 89059B   17085.82788840 +.00000010 +00000-0 -55563-5 0  9996
2 20150 082.9413 155.1981 0029850 150.2089 347.2046 13.75633445388855
Epoch (UTC): 26 March 2017 19:52:09
Eccentricity: 0.0029850
inclination: 82.9413°
perigee height: 957 km
apogee height: 1001 km
right ascension of ascending node: 155.1981°
argument of perigee: 150.2089°
revolutions per day: 13.75633445
mean anomaly at epoch: 347.2046°
orbit number at epoch: 38885

The dashed part of the orbit path shows where the satellite is in the earth's shadow,  

DLR